Route Details

Aircraft Information
Group: European Fleet
Types: A30F, A31F, B738
Route Data
Distance: 956nm
Duration: 2h 25m
Origin METAR: LMML 100515Z 24011KT CAVOK 20/16 Q1009 NOSIG
Dest. METAR: EDDK 100520Z AUTO 05003KT 8000 OVC020 M02/M03 Q1009 NOSIG
Freight Data
(for Dec 10, 2022)
Load Factor:
54%
Manifested Cargo: 52,543lbs
Financial History
Total Freight: 274,259lbs
Average Load: 0lbs/flt
Fuel Used: 152,270lbs
Avg. Fuel Used: 0lbs/flt
Fuel Expense: $65,233
Avg. Fuel Expense: $0
Avg. Fuel Cost: $0/lbs
Total Gross Income: $572,262
Pilot Pay: $1,204
Total Expenses: $92,322
Total Revenue: $410,211
Average Revenue: $0

Capitol Logistics 571




LMML
Malta International Airport
Malta, MT
EDDK
Cologne Bonn Airport
Cologne, DE